Page, AZ

6:24 AM MST on January 16, 2017 (GMT -0700)
Page Municipal

Weather History for KPGA - March, 2012

Change the Weather History Date:

Thursday, March 15, 2012

  Actual Average Record
Temperature  
Mean Temperature 59 °F -  
Max Temperature 72 °F 58 °F 78 °F (2007)
Min Temperature 46 °F 36 °F 22 °F (1962)
Degree Days  
Heating Degree Days 6    
Growing Degree Days 9 (Base 50)    
Moisture  
Dew Point 20 °F    
Average Humidity 23    
Maximum Humidity 37    
Minimum Humidity 13    
Precipitation  
Precipitation 0.00 in - - ()
Sea Level Pressure  
Sea Level Pressure 29.98 in    
Wind  
Wind Speed 3 mph (NNE)    
Max Wind Speed 8 mph    
Max Gust Speed -    
Visibility 10 miles    
Events      
Averages and records for this station are not official NWS values.
T = Trace of Precipitation, MM = Missing Value Source: NWS Daily Summary

Daily Weather History Graph

Daily Weather History Graph

Search for Another Location

Airport or City:

Trip Planner

Search our weather history database for the weather conditions in past years. The results will help you decide how hot, cold, wet, or windy it might be!

Date:

Astronomy

Mar. 15, 2012 Rise Set
Actual Time 6:35 AM MST 6:33 PM MST
Civil Twilight 6:10 AM MST 6:59 PM MST
Nautical Twilight 5:39 AM MST 7:29 PM MST
Astronomical Twilight 5:09 AM MST 8:00 PM MST
Moon 1:58 AM MST (3/15) 12:02 PM MST (3/15)
Length of Visible Light 12h 49m
Length of Day
11h 57m
Last Quarter, 42% of the Moon is Illuminated
Mar 15
Last Quarter
Mar 22
New
Mar 30
First Quarter
Apr 6
Full
Apr 13
Last Quarter

Hourly Weather History & Observations

Time (MST) Temp. Dew Point Humidity Pressure Visibility Wind Dir Wind Speed Gust Speed Precip Events Conditions
12:53 AM 55.0 °F 19.0 °F 24% 30.01 in 10.0 mi Variable 3.5 mph - N/A   Clear
1:53 AM 52.0 °F 19.0 °F 27% 30.01 in 10.0 mi SSE 5.8 mph - N/A   Clear
2:53 AM 51.1 °F 19.0 °F 28% 30.01 in 10.0 mi Calm Calm - N/A   Clear
3:53 AM 48.9 °F 19.9 °F 32% 30.01 in 10.0 mi Calm Calm - N/A   Clear
4:53 AM 48.9 °F 19.9 °F 32% 30.02 in 10.0 mi Calm Calm - N/A   Clear
5:53 AM 46.0 °F 21.0 °F 37% 30.05 in 10.0 mi Calm Calm - N/A   Clear
6:53 AM 46.0 °F 21.0 °F 37% 30.08 in 10.0 mi Calm Calm - N/A   Clear
7:53 AM 53.1 °F 21.0 °F 29% 30.09 in 9.0 mi Calm Calm - N/A   Clear
8:53 AM 54.0 °F 21.0 °F 28% 30.09 in 10.0 mi Calm Calm - N/A   Clear
9:53 AM 57.9 °F 21.9 °F 25% 30.08 in 10.0 mi Calm Calm - N/A   Clear
10:53 AM 62.1 °F 21.0 °F 21% 30.06 in 10.0 mi NE 3.5 mph - N/A   Clear
11:53 AM 63.0 °F 21.0 °F 20% 30.04 in 10.0 mi NNW 4.6 mph - N/A   Clear
12:53 PM 66.0 °F 21.9 °F 19% 30.00 in 10.0 mi North 8.1 mph - N/A   Clear
1:53 PM 68.0 °F 21.0 °F 17% 29.97 in 10.0 mi Calm Calm - N/A   Clear
2:53 PM 71.1 °F 19.9 °F 14% 29.94 in 10.0 mi North 6.9 mph - N/A   Clear
3:53 PM 72.0 °F 19.0 °F 13% 29.92 in 10.0 mi NE 8.1 mph - N/A   Clear
4:53 PM 71.1 °F 18.0 °F 13% 29.90 in 10.0 mi NE 8.1 mph - N/A   Clear
5:53 PM 69.1 °F 18.0 °F 14% 29.91 in 10.0 mi NNE 5.8 mph - N/A   Clear
6:53 PM 66.0 °F 18.0 °F 16% 29.91 in 10.0 mi NE 3.5 mph - N/A   Clear
7:53 PM 62.1 °F 19.0 °F 19% 29.90 in 10.0 mi Calm Calm - N/A   Clear
8:53 PM 62.1 °F 18.0 °F 18% 29.91 in 10.0 mi SSW 4.6 mph - N/A   Clear
9:53 PM 60.1 °F 17.1 °F 19% 29.90 in 10.0 mi SSW 5.8 mph - N/A   Clear
10:53 PM 59.0 °F 18.0 °F 20% 29.90 in 10.0 mi West 3.5 mph - N/A   Clear
11:53 PM 55.9 °F 16.0 °F 21% 29.91 in 10.0 mi SW 4.6 mph - N/A   Clear